CAPE
4 0 0 0 8 6 7 8 9 6 9 12 14 16 22 21 25 2 0 0 0 0 0 0 0 0 0 6 0 0 0 47 114 618 567 278 313 468 579 342 59 213 159 76 90 224 73 132 272 674 935 630 896 747
3 1 1 2 0 4 4 6 7 11 11 11 11 12 14 24 28 0 5 0 0 11 0 0 0 0 0 0 0 0 0 0 2 640 581 750 1174 410 615 164 273 454 17 130 274 182 254 484 909 705 605 1246 1213 952
1 3 6 1 1 5 9 10 11 12 11 9 13 15 16 15 25 41 16 8 1 6 0 0 0 0 0 0 0 0 0 0 19 239 483 636 907 459 819 693 673 554 207 576 548 599 357 419 454 286 784 1500 1394 1049
1 2 6 1 2 8 8 6 10 11 10 11 14 13 17 16 20 28 10 1 6 2 2 0 0 0 0 0 0 0 0 0 9 234 401 439 628 167 629 381 598 600 471 742 618 776 534 667 539 516 1158 1521 1505 683
5 4 4 4 7 6 7 8 11 13 10 11 13 14 9 11 30 9 7 5 6 0 0 0 0 0 0 0 0 0 0 0 0 2 307 601 273 441 327 310 599 488 979 844 871 477 581 569 514 718 1288 1261 890 695
6 6 7 7 5 5 9 11 10 10 9 9 12 9 7 11 28 0 0 0 2 4 9 0 0 0 0 0 0 0 0 0 0 0 0 2 115 430 518 523 699 553 504 565 737 454 404 455 502 788 1184 906 657 329
7 7 5 5 4 8 13 10 9 6 5 5 5 4 10 18 28 0 0 0 0 0 3 3 0 0 0 0 0 0 0 0 0 0 135 311 359 280 381 408 671 379 485 439 373 396 624 454 640 542 486 181 5 1
6 5 2 4 9 9 6 6 7 5 4 4 6 10 10 13 16 20 3 2 0 5 1 7 0 0 0 0 0 0 0 3 1 0 36 287 287 305 100 419 560 440 534 477 363 406 327 174 148 42 0 0 0 0
4 2 4 7 7 6 7 8 5 2 3 2 4 4 3 15 11 0 3 1 3 4 7 5 2 0 0 29 43 26 0 0 91 12 597 468 228 86 273 592 509 363 595 587 161 102 61 36 18 0 0 0 0 0
1 2 7 6 8 7 7 9 6 2 3 1 1 0 2 0 0 3 3 0 10 7 7 7 0 2 0 16 53 218 271 278 64 249 520 471 351 360 453 474 542 328 434 248 189 123 41 6 0 0 0 0 0 0
0 2 4 9 9 8 15 10 4 8 0 0 0 0 0 0 0 9 59 4 1 0 0 0 0 0 0 0 0 73 266 486 263 349 414 417 257 482 633 401 387 178 177 379 273 174 198 12 0 0 0 0 0 0
0 3 7 9 4 3 0 5 16 0 0 0 2 1 0 0 36 59 45 65 6 1 12 1 2 0 0 0 28 162 175 200 92 267 241 32 99 0 56 302 421 379 148 160 142 17 81 0 0 0 0 0 0 0
2 6 3 0 5 0 0 13 10 14 0 0 1 0 1 2 48 41 7 150 143 342 361 287 253 269 121 77 107 179 150 290 310 105 43 156 470 27 6 36 39 91 176 104 3 0 0 0 0 0 0 0 0 0
8 4 1 0 0 0 4 8 4 0 0 0 12 4 4 18 39 68 132 36 0 98 275 121 139 289 334 236 216 164 217 209 141 89 34 211 89 22 27 124 53 358 178 41 0 0 0 0 0 0 0 0 0 0
4 0 0 0 0 0 0 2 19 5 5 1 25 3 9 0 0 1 0 0 37 197 169 299 343 222 249 100 122 122 78 56 99 7 36 13 36 2 0 245 272 310 231 29 0 0 0 0 0 0 0 0 0 0
0 0 0 0 0 0 1 5 7 0 9 2 6 2 0 0 0 0 19 35 59 182 243 333 215 53 94 122 81 120 86 123 99 17 52 268 795 417 2 379 481 325 80 2 2 0 0 0 0 0 0 0 0 0
0 0 0 0 0 0 0 1 20 38 16 9 3 2 1 0 0 0 0 0 83 0 143 240 193 1 100 108 100 71 92 38 101 653 857 760 476 111 94 300 208 184 78 20 0 0 0 0 0 0 0 0 0 0
0 0 0 0 0 0 2 0 4 10 5 5 3 0 0 0 0 0 0 0 0 39 147 80 48 37 115 90 190 213 247 251 434 457 104 14 37 82 171 104 76 89 21 16 0 0 0 0 0 0 0 0 0 0
0 0 0 1 0 0 7 7 0 1 0 0 0 0 0 0 0 0 0 0 0 6 4 92 52 47 102 144 94 121 96 103 97 3 6 4 0 0 3 0 1 1 0 0 0 0 0 0 0 0 0 0 0 0
12 11 14 28 4 0 3 29 0 3 2 0 1 2 0 0 0 0 0 3 8 109 90 120 66 92 78 120 90 25 35 51 110 47 2 4 8 4 1 0 0 0 0 0 0 0 0 0 0 0 0 0 0 0
0 0 16 30 2 3 3 4 18 9 4 4 0 0 4 6 7 8 123 100 158 189 169 136 92 132 57 39 1 7 9 25 155 279 4 2 6 4 1 4 0 0 0 0 0 0 0 0 0 0 0 0 0 0
3 0 3 0 3 5 4 0 1 0 0 0 0 0 2 4 45 148 87 81 99 202 148 79 46 52 32 7 2 16 74 170 7 15 7 3 8 1 0 0 0 0 0 0 0 0 0 0 0 0 0 0 0 0
11 16 24 3 13 22 1 6 19 7 13 26 32 26 17 47 34 27 41 83 107 104 8 1 1 0 0 1 5 60 53 380 119 71 73 35 7 1 0 0 0 0 0 0 0 0 0 0 0 0 0 0 0 0
1 9 9 22 44 27 18 14 0 7 21 18 18 15 55 44 45 39 17 3 1 1 0 0 0 0 4 9 63 95 35 448 324 95 40 31 3 1 0 0 0 0 0 0 0 0 0 0 0 0 0 0 0 0
1 0 1 0 16 23 14 4 0 5 8 12 15 11 33 15 44 27 29 27 4 60 24 26 6 3 60 62 86 39 0 474 335 203 80 13 4 0 0 0 0 0 0 0 0 0 0 0 0 0 0 0 0 0
0 2 0 5 16 5 7 2 8 9 0 0 7 12 41 45 34 29 69 28 5 32 5 5 5 7 17 6 26 14 54 70 150 28 5 38 3 10 0 0 0 0 0 0 0 0 0 0 0 0 0 0 0 0
0 7 6 4 6 15 15 4 4 5 2 0 8 17 21 32 37 23 24 16 5 22 22 2 2 0 0 24 3 26 42 135 371 281 169 113 65 3 12 1 0 0 0 0 0 0 0 0 0 0 0 0 0 0
14 21 10 19 3 1 10 9 0 0 0 0 31 33 10 44 25 45 3 2 8 19 2 4 1 0 57 53 32 11 43 44 45 7 27 10 1 0 0 0 0 0 0 0 0 0 0 3 6 0 0 0 0 0
19 24 26 11 17 22 1 0 0 0 0 5 15 28 54 46 10 0 0 0 37 17 19 51 69 90 62 33 39 101 46 115 194 201 161 74 7 0 0 0 0 0 0 0 0 0 0 0 0 0 0 0 0 0
9 15 13 10 22 13 13 3 0 0 0 1 24 3 8 0 0 0 0 11 7 4 0 15 54 135 90 82 95 78 54 68 149 250 206 107 14 0 0 0 0 0 0 0 0 0 0 0 0 0 0 1 0 0
16 12 19 22 6 1 0 3 0 0 0 0 0 0 0 0 0 0 1 30 1 0 0 7 46 67 72 41 202 128 31 3 50 144 147 76 11 0 1 1 0 0 0 0 0 0 0 0 3 8 4 2 0 0
11 5 15 7 6 11 6 4 0 0 0 0 0 1 1 4 3 79 61 33 23 11 6 19 83 91 13 40 78 49 2 33 60 39 16 7 0 0 0 0 0 0 0 0 0 0 0 0 8 12 7 0 0 0
17 6 6 18 25 35 31 1 5 1 2 1 4 6 6 16 11 66 39 37 45 18 3 27 3 0 0 0 0 0 0 0 0 0 0 0 0 0 0 0 0 1 1 0 0 0 10 11 7 4 3 2 0 0
CIN
0 0 0 0 0 0 0 0 0 0 0 0 0 0 0 0 0 -2 -2 0 0 0 0 0 0 0 0 -19 0 0 0 -88 -123 -44 -37 -43 -53 -68 -73 -141 -131 -71 -75 -76 -163 -71 -23 -289 -248 -34 -24 -272 -196 -299
0 0 0 0 0 0 0 0 0 0 0 0 0 0 0 0 0 -3 -1 0 -1 0 0 0 0 0 0 0 0 0 0 0 -19 -81 -118 -121 -54 -177 -105 -13 -329 -80 -172 -71 -79 -52 -391 -250 -173 -161 -212 -238 -285 -324
0 0 -1 0 0 0 0 0 0 0 0 0 0 0 0 0 0 0 0 -1 -3 0 0 0 0 0 0 0 0 0 0 0 -17 -115 -88 -100 -77 -198 -49 -53 -98 -215 -447 -160 -202 -97 -345 -339 -326 -469 -292 -223 -251 -302
0 0 0 0 0 0 0 0 0 0 0 0 0 0 0 0 0 0 0 -1 0 0 0 0 0 0 0 0 0 0 0 0 -65 -44 -41 -82 -82 -252 -126 -250 -204 -183 -322 -227 -242 -257 -391 -362 -449 -357 -399 -273 -314 -486
0 0 0 0 0 0 0 0 0 0 0 0 0 0 0 0 0 0 0 0 0 0 0 0 0 0 0 0 0 0 0 0 0 -3 -20 -17 -151 -144 -201 -222 -196 -293 -137 -77 -32 -390 -437 -460 -597 -482 -405 -440 -563 -506
0 0 0 0 0 0 0 0 0 0 0 0 0 0 0 0 0 0 0 0 0 0 0 0 0 0 0 0 0 0 0 0 0 0 0 -4 -168 -55 -49 -85 -160 -292 -346 -329 -201 -536 -602 -645 -701 -546 -372 -476 -561 -632
0 0 0 0 0 0 0 0 0 0 0 0 0 0 0 -1 0 0 0 0 0 0 0 0 0 0 0 0 0 0 0 0 0 0 -18 -25 -37 -56 -14 -60 -109 -260 -294 -353 -482 -565 -532 -656 -566 -647 -607 -752 -728 -361
0 0 0 0 0 0 0 0 0 0 0 0 0 0 0 -1 -1 0 0 0 0 0 0 0 0 0 0 0 0 0 0 0 0 0 -16 -24 -25 -10 -64 -134 -145 -196 -268 -336 -456 -518 -630 -802 -840 -944 0 0 0 0
0 0 0 0 0 0 0 0 0 0 0 0 0 0 0 -1 0 0 -5 0 0 0 0 0 0 0 0 -23 -8 -28 0 0 -3 -34 0 -5 -10 -51 -158 -135 -116 -172 -197 -224 -533 -685 -787 -889 -922 -138 0 0 0 0
0 0 0 0 0 0 0 0 0 0 0 0 0 0 0 0 0 0 0 0 0 0 0 0 0 0 0 -42 -20 0 0 -1 -14 -8 0 0 -5 -100 -102 -138 -143 -188 -213 -368 -459 -584 -731 -905 0 0 0 0 0 0
0 0 0 0 0 0 0 0 0 0 0 0 0 0 0 0 0 -2 0 -1 0 0 0 0 0 0 0 0 0 -18 -5 -18 -3 -20 -5 -1 -34 -106 -99 -154 -184 -282 -256 -280 -305 -386 -382 -636 0 0 0 0 0 0
0 0 0 0 0 0 0 0 0 0 0 0 0 0 0 -10 -5 0 0 -1 -3 -13 -23 -14 -37 0 0 0 -16 -6 -24 -68 -4 -31 -6 -40 -104 0 -238 -186 -208 -282 -368 -292 -295 -281 -362 0 0 0 0 0 0 0
0 0 0 0 0 0 0 -1 -1 -1 0 0 0 0 0 -2 0 -1 0 -1 0 0 -8 -2 -1 -3 -20 -10 -5 -1 -42 -4 -44 -19 -37 -25 -71 -212 -251 -347 -362 -397 -342 -302 -62 0 0 0 0 0 0 0 0 0
0 0 0 0 0 0 -2 -4 -3 -2 0 0 -1 -5 -1 0 0 -1 0 -4 0 -22 -8 -22 -19 -8 -6 -1 -22 -7 -45 -42 -32 -3 -20 -35 -102 -255 -390 -334 -410 -300 -337 -326 0 0 0 0 0 0 0 0 0 0
0 0 0 0 0 0 0 -4 -2 -24 -17 -1 -3 0 0 0 0 -6 0 0 -31 -2 -8 -6 0 -10 -4 -14 -21 -17 -47 -4 -28 -30 -64 -45 -122 -275 0 -317 -295 -314 -353 -369 0 0 0 0 0 0 0 0 0 0
0 0 0 0 -7 0 -14 -35 -22 -26 -29 -5 -2 0 0 0 0 0 -15 -14 -28 -1 -1 0 -1 -11 -1 -13 -1 -30 -41 -17 -37 -76 -44 -167 -204 -294 -288 -296 -267 -328 -408 -481 -318 0 0 0 0 0 0 0 0 0
0 0 0 0 0 0 0 -47 -19 -2 0 0 -1 0 0 0 0 0 0 0 -5 0 0 -1 0 -10 -6 -8 -4 -57 -59 -138 -189 -143 -159 -188 -258 -416 -466 -397 -405 -411 -498 -589 -84 0 0 0 0 0 0 0 0 0
0 0 0 0 0 0 -1 0 -15 -1 0 0 0 0 0 0 0 0 0 0 0 -2 0 -2 -1 0 -1 -7 -8 -64 -93 -137 -139 -167 -295 -364 -418 -439 -426 -526 -554 -553 -612 -609 0 0 0 0 0 0 0 0 0 0
0 0 0 -14 -6 0 -4 -2 0 0 0 0 0 0 0 0 0 0 0 0 0 0 0 0 0 0 -4 0 -33 -126 -180 -183 -227 -189 0 0 0 0 -302 0 0 0 0 0 0 0 0 0 0 0 0 0 0 0
-6 -4 -2 -1 -4 0 0 -1 0 0 0 0 0 0 0 0 0 0 0 0 0 -2 -1 0 0 -3 -3 -5 -43 -150 -235 -244 -242 -296 -113 -41 0 0 0 0 0 0 0 0 0 0 0 0 0 0 0 0 0 0
-1 0 -1 -1 -3 0 0 -18 -1 -4 0 0 0 0 -4 0 0 0 0 -2 0 -1 -3 -12 -9 -11 -48 -59 0 -3 -87 -266 -193 -156 -235 0 0 0 0 0 0 0 0 0 0 0 0 0 0 0 0 0 0 0
-11 -6 0 -1 0 -3 0 0 0 -4 0 0 0 0 -1 -7 -14 -3 -14 -16 -8 -1 -10 -28 -34 -27 -47 -51 -133 -176 -188 -175 -115 -78 -97 0 0 0 0 0 0 0 0 0 0 0 0 0 0 0 0 0 0 0
-7 -5 -1 0 -4 -2 -13 -15 0 0 0 -2 -11 -8 -2 -1 -2 -7 -6 -9 -3 -23 -54 -46 -21 0 0 0 -65 -141 -196 -96 -186 -270 -287 -311 -203 0 0 0 0 0 0 0 0 0 0 0 0 0 0 0 0 0
-1 -1 -6 -2 0 0 -3 -2 0 -1 -1 0 0 -2 -2 -2 -1 0 -1 -1 -10 -14 0 0 0 0 -19 -106 -86 -103 -184 -59 -96 -183 -252 -252 0 0 0 0 0 0 0 0 0 0 0 0 0 0 0 0 0 0
0 0 0 -2 -5 0 0 -2 0 0 0 -1 0 -4 -3 -16 0 0 0 -1 0 -6 -22 -33 -83 -123 -57 -67 -86 -120 0 -12 -45 -116 -140 -214 0 0 0 0 0 0 0 0 0 0 0 0 0 0 0 0 0 0
0 0 0 -9 -4 -4 -2 0 0 0 0 0 -11 -18 -14 0 0 0 0 0 0 -7 0 0 -60 -79 -113 -167 -131 -156 -116 -109 -103 -185 -127 -170 -60 -57 0 0 0 0 0 0 0 0 0 0 0 0 0 0 0 0
0 0 -7 -21 -10 -5 0 -1 0 0 0 -1 -6 -3 0 0 0 -1 -6 -5 -19 -46 -38 0 0 0 0 -128 -72 -135 -137 -108 -51 -63 -112 -108 -111 -144 -92 -80 0 0 0 0 0 0 0 0 0 0 0 0 0 0
-2 -1 0 0 0 0 0 -1 -1 0 0 0 -1 -1 -1 0 0 -1 -5 -8 -91 -77 0 -123 0 0 -76 -107 -118 -120 -128 -120 -123 -159 -137 -54 -15 0 0 0 0 0 0 0 0 0 0 -14 -20 0 0 0 0 0
0 0 0 0 0 0 -1 -1 0 0 0 -6 0 0 -1 -2 -9 -2 0 0 -35 -74 -83 -62 -58 -60 -72 -115 -110 -100 -131 -100 -81 -53 -34 -30 -64 0 0 0 0 0 0 0 0 0 0 0 0 0 0 0 0 0
0 0 -3 -4 0 -1 -4 -24 0 0 0 -6 -4 -3 -16 0 0 0 0 -10 -21 0 0 -106 -89 -66 -105 -117 -111 -120 -131 -126 -80 -72 -33 -22 -30 0 0 0 0 0 0 0 0 0 0 0 0 0 0 -28 0 0
0 0 -2 -1 0 -13 0 -40 0 0 0 0 0 0 0 0 0 0 -2 -31 -25 0 0 -104 -81 -90 -106 -147 -83 -97 -93 -80 -111 -58 -33 -36 -53 0 -22 -23 0 0 0 0 0 0 0 0 -21 -37 -53 -83 0 0
0 0 0 0 -3 -9 -16 -2 0 0 0 0 0 0 0 0 -9 -2 -2 -27 -35 -49 -110 -91 -66 -68 -174 -177 -148 -148 -8 -80 -67 -78 -86 -63 -4 0 0 0 0 0 0 0 0 0 0 0 -37 -36 -66 0 0 0
0 -1 -1 -4 0 0 0 -1 -7 0 0 0 -2 -3 -2 -7 -3 -1 -25 -43 -56 -112 -34 -154 -170 0 0 0 0 0 0 0 0 0 0 0 0 0 0 0 0 -108 -25 0 0 0 -32 -40 -61 -82 -80 -53 0 0
Wind_Speed
7 9 9 10 11 11 11 11 11 11 12 12 12 13 13 11 9 2 2 2 3 4 11 7 5 4 4 3 3 5 6 3 3 5 4 2 4 1 3 1 2 5 6 4 3 5 7 9 9 10 7 1 17 17
9 10 9 10 11 12 11 12 11 11 11 12 11 12 12 11 10 1 1 1 1 5 8 5 11 16 16 18 6 3 5 4 3 3 2 2 3 2 3 7 3 5 4 2 7 5 3 15 4 5 6 7 16 19
8 11 10 11 11 12 12 12 12 11 11 11 11 11 11 11 10 6 2 2 2 4 8 5 8 8 15 24 17 6 3 6 3 2 3 2 5 2 4 4 3 6 4 4 3 6 12 10 13 10 7 10 15 16
10 11 11 10 12 12 12 12 12 11 11 11 11 11 11 10 9 8 4 1 1 3 6 7 4 9 6 11 20 25 14 1 4 2 3 3 3 3 2 3 3 3 6 3 6 12 8 13 12 7 5 14 16 14
10 11 12 12 12 12 12 12 13 12 11 11 12 11 11 11 10 7 4 5 7 4 5 9 17 8 8 12 18 19 21 16 5 4 3 3 1 3 1 2 5 6 6 6 4 3 5 3 5 8 11 13 21 28
11 11 11 11 11 12 13 12 13 13 12 12 12 12 11 10 7 4 2 2 4 4 4 7 6 7 7 4 13 15 12 9 7 5 5 4 3 3 3 4 7 9 7 6 4 1 8 9 3 7 10 14 16 15
11 10 11 11 12 13 12 12 12 13 13 13 13 12 10 9 3 4 3 3 6 3 3 8 7 4 5 3 4 5 10 4 5 4 5 3 3 4 3 6 6 4 9 10 10 6 5 2 2 7 12 14 17 19
10 10 10 11 12 11 12 12 12 13 14 14 13 13 11 10 8 6 6 13 7 3 3 5 8 6 1 2 3 4 5 5 7 4 3 4 3 4 7 12 14 11 7 7 6 9 4 9 12 14 16 17 20 18
9 10 10 10 11 11 11 12 12 13 14 14 14 12 2 2 3 1 0 7 7 4 3 5 4 5 7 2 1 4 5 6 4 6 5 6 6 9 11 14 14 8 9 5 5 9 12 12 13 15 14 17 18 18
9 9 10 9 10 11 11 10 11 13 13 11 0 2 2 3 3 6 3 3 4 5 5 5 3 6 4 2 2 2 4 5 6 7 6 6 6 12 13 14 10 7 8 9 13 15 16 16 15 12 10 12 17 19
8 9 9 10 9 9 8 8 10 11 3 1 2 2 3 5 3 3 4 5 4 5 6 6 9 11 4 5 4 4 3 5 5 6 7 5 6 12 19 21 18 12 9 14 12 9 9 19 20 12 10 7 14 17
9 8 8 8 9 8 7 7 6 2 1 2 3 4 3 2 4 6 4 4 6 5 5 4 5 7 4 4 4 5 5 3 4 8 4 4 5 14 10 16 17 14 16 16 9 5 9 14 15 19 12 12 15 15
8 7 6 7 8 8 8 7 5 5 4 1 2 3 2 3 6 7 6 5 4 4 3 2 5 4 4 5 5 4 5 2 8 4 3 4 9 5 5 6 10 12 16 16 16 13 18 20 17 21 16 10 15 16
7 6 6 8 8 9 7 4 3 1 1 2 3 4 6 6 6 6 4 2 4 4 7 8 5 4 2 5 2 6 2 3 5 4 3 6 5 7 4 8 13 17 17 18 19 17 16 20 17 14 16 14 15 15
5 5 6 9 6 3 3 4 3 2 2 3 3 5 7 6 5 5 5 6 4 5 5 6 6 3 4 3 3 4 4 4 2 5 5 6 6 4 4 7 12 13 14 16 17 16 15 17 17 17 13 14 14 14
3 5 4 5 3 3 4 1 2 2 2 3 5 5 7 7 8 5 4 5 2 3 6 4 4 2 6 4 5 8 3 4 2 4 5 7 7 6 5 7 9 11 15 15 13 13 14 15 16 17 16 13 13 15
2 2 2 1 2 4 2 1 2 4 4 4 5 5 8 9 10 8 6 4 1 3 4 4 5 6 3 3 5 4 3 2 4 6 6 7 8 6 5 10 12 14 15 16 18 15 16 14 13 15 15 12 13 12
3 2 3 2 2 1 1 3 2 3 6 6 5 5 5 6 7 8 6 5 3 3 3 1 3 4 4 4 1 4 3 6 6 4 7 7 4 4 7 13 14 14 15 14 13 17 19 13 12 10 14 13 12 11
4 4 5 4 1 0 2 3 2 4 7 4 6 7 5 6 8 11 8 6 6 4 4 4 3 3 4 1 4 6 6 6 6 4 5 6 5 8 11 13 14 14 14 14 13 10 13 13 12 11 11 11 10 9
10 10 10 9 7 2 3 3 2 4 5 3 4 5 4 6 4 4 5 5 5 4 5 4 5 4 4 3 4 6 6 6 5 2 3 5 4 7 9 10 10 12 12 12 11 11 12 10 9 10 11 11 11 10
0 2 2 5 2 3 3 3 4 4 4 5 3 3 5 3 5 4 3 3 4 3 4 3 4 7 6 6 5 5 6 6 5 2 2 4 5 7 9 10 10 8 11 10 11 10 10 10 10 10 11 9 9 9
1 5 2 2 2 4 4 4 4 3 4 5 4 3 4 3 3 2 1 4 3 4 3 2 3 4 5 6 4 5 6 5 3 5 8 7 6 9 9 9 9 8 7 9 10 11 11 10 10 10 10 9 9 8
1 3 2 4 4 4 4 3 4 4 4 4 3 3 3 2 2 3 4 3 3 1 2 3 4 5 6 6 5 5 4 3 5 6 6 5 5 8 8 8 8 10 10 8 9 10 10 11 10 10 10 9 9 8
1 2 2 2 4 4 3 4 3 3 3 3 3 5 1 2 2 3 3 3 3 3 5 7 5 3 3 4 3 1 1 1 6 7 6 7 7 6 6 7 8 8 9 10 10 10 10 10 10 10 10 10 10 9
1 3 3 4 3 3 4 3 4 3 4 3 4 3 1 2 2 3 2 3 4 1 4 3 1 3 3 3 2 1 2 2 5 8 6 7 8 8 8 7 7 8 10 12 12 12 11 10 10 10 10 9 9 8
4 4 6 3 2 3 2 4 3 4 4 4 3 3 2 2 4 3 2 6 3 2 5 4 3 0 2 1 2 2 2 1 3 4 4 6 7 7 10 12 11 7 7 10 13 14 13 11 11 11 9 8 5 8
3 4 4 3 2 2 4 4 3 4 3 4 4 4 3 4 1 2 4 3 4 4 5 4 2 2 2 1 1 2 2 3 1 3 6 5 4 4 5 10 12 9 9 12 12 14 13 12 11 10 9 8 8 7
4 3 5 4 3 3 3 3 3 4 3 3 6 4 6 8 5 4 4 8 9 6 4 2 2 2 3 3 4 4 5 6 9 11 8 6 4 4 6 8 10 13 10 10 11 10 10 10 10 9 9 8 6 5
4 2 3 5 4 4 5 5 3 3 2 2 5 4 5 3 3 5 8 8 7 6 4 3 3 1 2 4 5 4 4 6 13 17 15 9 7 5 5 8 9 8 8 9 5 5 10 10 9 8 8 6 5 5
4 4 4 4 5 5 4 6 3 2 2 2 2 4 3 4 5 4 4 5 4 4 4 3 3 4 4 3 5 5 2 3 4 9 11 11 9 9 8 9 9 9 8 9 9 9 10 9 10 7 6 6 7 8
3 5 3 3 4 4 5 3 3 3 3 3 4 5 5 4 3 1 2 5 4 3 4 4 3 3 4 4 6 6 5 3 6 9 10 9 9 8 7 7 8 8 8 9 9 10 9 7 6 7 8 8 10 10
5 6 4 4 3 3 2 2 2 2 1 2 3 2 3 3 3 0 1 3 2 1 2 2 3 3 1 3 3 1 3 6 7 8 11 9 8 8 9 8 8 8 9 9 9 9 10 9 7 8 8 11 13 12
4 4 4 3 3 3 3 3 2 3 2 2 2 2 2 2 3 2 0 1 2 4 4 6 4 2 2 5 4 5 5 6 9 12 14 12 13 10 7 6 6 7 10 9 8 8 9 9 8 10 11 13 13 12
Wind_Direction
294 314 317 322 319 324 324 325 325 327 331 334 338 341 346 357 10 31 357 346 344 284 277 240 247 251 283 243 266 356 289 184 253 240 243 219 249 156 244 198 211 210 194 187 160 205 248 159 137 192 207 299 174 168
295 302 309 311 316 321 317 316 319 319 320 325 330 335 339 346 348 174 300 215 345 247 277 286 260 259 248 253 295 270 305 314 288 281 240 279 236 247 272 235 184 239 243 238 221 214 344 199 313 222 164 164 171 164
284 294 304 309 313 315 315 314 314 314 316 318 321 326 331 334 333 341 287 309 261 280 274 268 230 258 229 234 230 247 228 229 247 304 315 294 261 198 225 224 243 200 176 226 265 217 236 247 253 276 224 158 172 164
277 290 299 305 306 307 310 312 311 311 310 312 315 318 323 324 323 320 282 209 233 283 280 281 325 268 243 210 206 218 237 115 333 281 260 256 259 208 264 325 269 9 168 188 264 276 264 252 246 238 213 150 140 138
275 281 289 297 302 306 306 306 308 308 307 309 310 313 317 321 321 307 265 246 233 239 294 293 300 268 258 228 219 211 219 232 245 285 261 242 239 230 210 281 245 195 190 198 253 358 308 293 324 196 171 164 151 136
271 278 284 292 297 300 300 302 306 308 306 304 305 308 309 312 333 312 262 143 200 198 283 295 323 278 305 259 212 204 202 204 204 210 238 251 212 227 255 252 263 218 229 247 279 296 266 288 303 208 170 155 149 138
269 276 285 292 294 296 300 301 303 304 304 304 302 299 296 290 277 251 324 56 158 146 255 291 288 272 297 136 130 163 178 187 191 220 225 243 200 198 239 242 280 313 262 259 251 252 239 152 189 148 138 125 117 116
267 276 285 289 291 297 299 299 300 300 301 302 299 293 289 278 264 258 242 186 155 238 247 273 276 288 330 239 156 146 157 199 206 223 230 214 155 220 249 239 256 275 290 262 266 210 313 123 122 120 123 126 119 121
263 276 282 287 292 293 295 298 301 301 302 301 303 309 266 195 208 250 355 181 189 259 267 224 273 289 345 303 293 176 181 181 188 215 210 170 188 219 222 234 241 252 222 243 145 137 126 121 124 127 129 126 122 126
256 274 281 286 291 298 299 298 307 310 303 308 130 222 225 204 216 174 211 166 170 209 233 249 268 256 323 332 295 272 190 213 191 206 150 215 240 239 239 236 240 229 233 164 163 161 139 123 112 113 123 136 136 137
258 267 274 283 288 298 302 310 320 322 341 6 356 265 348 311 195 215 230 196 165 227 212 230 232 249 245 227 246 233 239 208 214 170 204 206 238 226 222 226 227 211 198 199 202 277 243 142 129 116 112 149 136 135
257 263 277 282 284 290 304 310 322 335 322 354 302 299 276 243 217 250 221 178 208 244 191 220 224 210 242 212 237 218 256 218 221 141 193 245 247 271 246 227 218 187 191 207 208 224 166 108 112 113 138 164 129 132
256 264 274 280 278 286 297 292 299 280 284 204 213 244 207 236 230 218 217 209 220 214 226 328 310 248 198 209 240 249 240 207 129 176 225 244 251 281 250 180 173 158 160 151 142 152 129 122 129 137 146 129 131 132
251 263 275 274 278 288 281 263 298 44 248 247 237 252 219 209 232 210 239 332 313 280 312 323 270 247 200 217 241 254 80 174 221 157 251 275 295 309 177 164 157 160 152 145 142 144 140 129 137 151 120 129 130 132
245 266 277 284 254 251 289 288 254 204 240 253 239 243 234 253 275 286 286 285 271 286 298 292 253 223 256 255 219 300 216 227 259 121 252 282 288 284 250 186 162 152 142 148 147 145 144 140 123 107 125 130 134 140
246 294 233 215 279 314 321 100 164 173 239 239 237 250 258 270 275 275 276 286 287 276 294 228 259 248 238 155 255 224 256 207 112 166 209 256 294 318 186 187 174 153 144 137 131 130 130 122 124 127 133 139 146 147
180 228 199 241 334 334 188 178 200 222 236 239 244 240 268 279 273 276 255 248 246 328 258 216 220 207 267 218 243 214 263 330 327 317 333 318 307 317 150 138 135 134 130 132 132 127 108 105 122 130 130 149 150 154
209 207 186 99 50 355 183 202 240 254 254 244 247 259 230 239 263 259 247 239 226 230 250 214 334 242 260 245 60 351 316 314 298 310 325 335 29 103 133 123 122 123 125 127 127 125 118 125 132 144 140 145 142 141
193 198 220 227 163 126 258 196 215 258 248 262 259 256 251 254 247 251 263 249 231 242 284 235 236 265 235 281 312 310 323 320 314 340 359 32 86 114 119 110 104 111 119 125 136 145 125 146 143 144 145 150 140 146
251 256 251 228 181 192 248 220 194 252 265 272 247 253 242 250 279 249 244 226 204 211 208 229 213 219 275 282 264 275 279 281 296 331 45 73 101 118 113 109 112 117 115 119 120 109 117 124 130 140 147 145 144 147
39 129 93 134 159 218 266 258 237 238 267 255 277 233 264 251 251 251 253 185 215 228 235 237 218 246 249 268 265 272 282 270 265 247 165 133 125 122 112 103 97 110 123 131 131 125 130 127 135 137 143 141 137 140
177 168 120 178 213 203 248 225 257 288 265 272 275 221 268 268 284 284 242 220 234 228 219 219 255 295 307 286 276 292 293 310 64 104 99 119 137 133 128 123 116 115 127 135 133 128 125 132 134 134 132 128 136 136
223 183 189 181 226 226 260 182 250 228 267 274 262 250 221 212 247 301 264 259 270 299 224 240 254 241 268 289 306 300 320 41 83 104 117 117 133 130 128 119 127 125 125 120 120 120 119 122 123 125 124 133 134 131
133 194 238 231 208 268 259 238 228 266 252 244 252 269 323 260 251 242 263 294 280 308 286 279 256 269 255 249 247 197 283 146 108 109 121 137 128 116 114 115 129 125 120 127 123 123 132 129 128 136 138 139 146 151
178 220 163 250 245 247 257 257 246 249 256 272 262 248 205 264 281 256 287 253 213 249 14 3 299 209 246 267 323 93 207 165 123 126 119 118 117 113 109 103 111 124 136 129 131 132 132 138 136 140 144 145 148 158
228 200 179 230 202 210 261 280 279 313 301 283 272 309 332 324 282 289 337 289 327 355 9 353 338 348 210 249 325 360 37 85 91 84 95 133 144 143 142 139 134 127 144 136 140 139 140 145 147 148 150 154 159 171
247 238 201 232 264 286 259 254 258 272 274 277 318 319 295 240 244 292 293 356 327 334 341 341 304 274 5 99 116 93 89 90 101 98 121 126 128 167 160 141 140 133 140 142 143 146 148 151 157 164 159 155 157 156
240 236 211 158 205 223 272 285 270 264 275 298 301 293 334 357 357 325 313 321 325 336 331 11 39 74 72 73 88 119 100 118 117 112 101 102 112 134 120 112 121 130 136 140 142 151 159 164 158 148 141 131 126 124
229 207 192 219 219 207 213 220 248 246 260 301 328 320 340 329 258 287 310 317 318 325 346 22 63 51 75 101 97 104 133 151 148 141 135 127 130 114 111 115 131 133 136 135 97 145 160 152 144 135 132 126 111 119
219 191 205 219 224 233 225 190 217 232 211 242 292 287 269 261 261 270 275 299 335 353 353 329 332 16 40 83 114 115 157 231 252 155 145 145 140 142 143 142 145 141 143 145 133 118 110 113 117 121 132 128 122 133
156 186 220 219 250 252 248 247 239 242 238 243 219 239 266 296 309 267 304 320 330 338 324 343 3 13 27 126 142 145 139 160 176 164 140 129 137 140 144 144 142 142 141 137 142 143 145 154 143 141 144 143 145 146
173 193 208 217 243 233 210 228 251 261 220 222 265 226 253 254 281 202 30 328 329 308 316 316 346 28 0 158 174 241 255 136 139 131 124 122 121 127 131 136 138 138 139 142 148 150 158 157 155 158 152 158 159 154
171 184 216 270 251 215 178 201 242 284 260 251 233 228 250 276 296 321 123 103 308 305 330 311 329 310 181 158 156 135 113 99 90 87 89 99 113 122 128 132 128 143 143 140 145 152 162 164 159 159 162 163 162 165